Weather History for Diyarbakir, Turkey

Change the Weather History Date:

Tuesday, November 5, 2013

  Actual Average Record
Temperature  
Mean Temperature 54 °F -  
Max Temperature 67 °F 59 °F 75 °F (1998)
Min Temperature 41 °F 39 °F 31 °F (2014)
Degree Days  
Heating Degree Days 11    
Growing Degree Days 4 (Base 50)    
Moisture  
Dew Point 24 °F    
Average Humidity 30    
Maximum Humidity 42    
Minimum Humidity 11    
Precipitation  
Precipitation 0.00 in 0.07 in - ()
Sea Level Pressure  
Sea Level Pressure 30.18 in    
Wind  
Wind Speed 3 mph ()    
Max Wind Speed 6 mph    
Max Gust Speed -    
Visibility 6.8 miles    
Events      
Averages and records for this station are not official NWS values.
T = Trace of Precipitation, MM = Missing Value Source: Averaged Metar Reports

Daily Weather History Graph

Daily Weather History Graph

Search for Another Location

Airport:

Trip Planner

Search our weather history database for the weather conditions in past years. The results will help you decide how hot, cold, wet, or windy it might be!

Date:

Astronomy

Nov. 05, 2013 Rise Set
Actual Time 5:48 AM EET 4:16 PM EET
Civil Twilight 5:21 AM EET 4:43 PM EET
Nautical Twilight 4:50 AM EET 5:14 PM EET
Astronomical Twilight 4:19 AM EET 5:45 PM EET
Moon 7:39 AM EET (11/5) 5:58 PM EET (11/5)
Length of Visible Light 11h 22m
Length of Day
10h 27m
Waxing Crescent, 5% of the Moon is Illuminated
Nov 5
Waxing Crescent
Nov 10
First Quarter
Nov 17
Full
Nov 25
Last Quarter
Dec 3
New

Hourly Weather History & Observations

Time (EET) Temp. Windchill Dew Point Humidity Pressure Visibility Wind Dir Wind Speed Gust Speed Precip Events Conditions
12:20 AM 48.2 °F - 23.0 °F 37% 30.21 in - North 4.6 mph - N/A   Clear
12:50 AM 44.6 °F 43.1 °F 21.2 °F 39% 30.21 in - NNW 3.5 mph - N/A   Clear
1:20 AM 42.8 °F 41.1 °F 21.2 °F 42% 30.21 in - WNW 3.5 mph - N/A   Clear
1:50 AM 46.4 °F - 23.0 °F 40% 30.21 in - Variable 2.3 mph - N/A   Clear
2:00 AM 47 °F - 23 °F 25% 30.17 in 12 mi West 2.3 mph - -  
2:20 AM 42.8 °F 40.1 °F 21.2 °F 42% 30.21 in - West 4.6 mph - N/A   Clear
2:50 AM 44.6 °F 43.1 °F 21.2 °F 39% 30.21 in - West 3.5 mph - N/A   Clear
3:20 AM 44.6 °F - 21.2 °F 39% 30.21 in - Variable 1.2 mph - N/A   Clear
3:50 AM 46.4 °F - 19.4 °F 34% 30.21 in - Calm Calm - N/A   Clear
4:20 AM 42.8 °F - 19.4 °F 39% 30.21 in - West 2.3 mph - N/A   Clear
4:50 AM 42.8 °F 41.1 °F 19.4 °F 39% 30.21 in - West 3.5 mph - N/A   Clear
5:20 AM 42.8 °F 41.1 °F 19.4 °F 39% 30.21 in - West 3.5 mph - N/A   Clear
5:50 AM 42.8 °F - 19.4 °F 39% 30.21 in - West 2.3 mph - N/A   Clear
6:20 AM 42.8 °F - 21.2 °F 42% 30.21 in - Calm Calm - N/A   Clear
6:50 AM 48.2 °F - 24.8 °F 40% 30.24 in - Calm Calm - N/A   Clear
7:20 AM 50.0 °F - 21.2 °F 32% 30.24 in - SW 2.3 mph - N/A   Clear
7:50 AM 53.6 °F - 23.0 °F 30% 30.24 in - Calm Calm - N/A   Clear
8:00 AM 53 °F - 20 °F 16% 30.24 in 12 mi Calm Calm - -   Clear
8:20 AM 53.6 °F - 24.8 °F 33% 30.24 in - East 3.5 mph - N/A   Clear
8:50 AM 57.2 °F - 26.6 °F 31% 30.24 in - East 4.6 mph - N/A   Clear
9:20 AM 57.2 °F - 23.0 °F 27% 30.24 in - East 4.6 mph - N/A   Clear
9:50 AM 59.0 °F - 24.8 °F 27% 30.24 in - Variable 2.3 mph - N/A   Clear
10:20 AM 60.8 °F - 24.8 °F 25% 30.24 in - NE 3.5 mph - N/A   Clear
10:50 AM 62.6 °F - 26.6 °F 26% 30.21 in 6.2 mi NE 3.5 mph - N/A   Mostly Cloudy
11:20 AM 62.6 °F - 26.6 °F 26% 30.21 in 6.2 mi NE 5.8 mph - N/A   Mostly Cloudy
11:50 AM 64.4 °F - 26.6 °F 24% 30.18 in 6.2 mi NNE 4.6 mph - N/A   Mostly Cloudy
12:20 PM 64.4 °F - 24.8 °F 22% 30.18 in - North 3.5 mph - N/A   Clear
12:50 PM 66.2 °F - 24.8 °F 21% 30.18 in 6.2 mi NNW 3.5 mph - N/A   Mostly Cloudy
1:20 PM 66.2 °F - 26.6 °F 23% 30.15 in 6.2 mi North 3.5 mph - N/A   Mostly Cloudy
1:50 PM 66.2 °F - 26.6 °F 23% 30.15 in 6.2 mi NNE 4.6 mph - N/A   Mostly Cloudy
2:00 PM 67 °F - 26 °F 11% 30.14 in 12 mi NNE 4.6 mph - -   Scattered Clouds
2:20 PM 66.2 °F - 26.6 °F 23% 30.15 in 6.2 mi Variable 2.3 mph - N/A   Mostly Cloudy
2:50 PM 66.2 °F - 26.6 °F 23% 30.15 in 6.2 mi NW 3.5 mph - N/A   Mostly Cloudy
3:20 PM 66.2 °F - 26.6 °F 23% 30.15 in 6.2 mi Variable 2.3 mph - N/A   Mostly Cloudy
3:50 PM 64.4 °F - 26.6 °F 24% 30.12 in 6.2 mi SW 2.3 mph - N/A   Mostly Cloudy
4:20 PM 62.6 °F - 26.6 °F 26% 30.12 in 6.2 mi WSW 3.5 mph - N/A   Mostly Cloudy
4:50 PM 62.6 °F - 26.6 °F 26% 30.15 in 6.2 mi WSW 4.6 mph - N/A   Mostly Cloudy
5:20 PM 60.8 °F - 24.8 °F 25% 30.15 in 6.2 mi WSW 3.5 mph - N/A   Mostly Cloudy
5:50 PM 59.0 °F - 24.8 °F 27% 30.15 in 6.2 mi West 3.5 mph - N/A   Mostly Cloudy
6:20 PM 57.2 °F - 24.8 °F 29% 30.15 in 6.2 mi NW 4.6 mph - N/A   Mostly Cloudy
6:50 PM 55.4 °F - 24.8 °F 31% 30.15 in 6.2 mi NW 4.6 mph - N/A   Partly Cloudy
7:20 PM 55.4 °F - 24.8 °F 31% 30.15 in 6.2 mi West 3.5 mph - N/A   Partly Cloudy
7:50 PM 55.4 °F - 28.4 °F 36% 30.15 in 6.2 mi Variable 1.2 mph - N/A   Partly Cloudy
8:00 PM 56 °F - 28 °F 22% 30.14 in 6 mi North 1.2 mph - -   Scattered Clouds
8:20 PM 55.4 °F - 23.0 °F 29% 30.15 in 6.2 mi West 4.6 mph - N/A   Partly Cloudy
8:50 PM 55.4 °F - 24.8 °F 31% 30.15 in 6.2 mi West 3.5 mph - N/A   Partly Cloudy
9:20 PM 53.6 °F - 23.0 °F 30% 30.15 in 6.2 mi West 4.6 mph - N/A   Partly Cloudy
9:50 PM 51.8 °F - 23.0 °F 33% 30.15 in 6.2 mi West 3.5 mph - N/A   Partly Cloudy
10:20 PM 53.6 °F - 23.0 °F 30% 30.15 in 6.2 mi WSW 3.5 mph - N/A   Partly Cloudy
10:50 PM 50.0 °F - 23.0 °F 35% 30.12 in 6.2 mi West 5.8 mph - N/A   Partly Cloudy
11:20 PM 48.2 °F - 21.2 °F 34% 30.12 in 6.2 mi West 4.6 mph - N/A   Partly Cloudy
11:50 PM 50.0 °F - 23.0 °F 35% 30.15 in 6.2 mi West 3.5 mph - N/A   Partly Cloudy